Home > Weather > Ceuta > Past weeks

Flag for Spain Past Weather in Ceuta, Ceuta, Spain — Yesterday and Last 2 Weeks

Now
75 °F

Clear.


Feels Like: 76 °F
Forecast: 71 / 78 °F
Wind: 2 mph from Northwest

Location: Gibraltar Airport

Current Time: Aug 29, 2016 at 5:58:17 AM

Latest Report: Aug 29, 2016 at 4:50 AM


Visibility: N/A

Pressure: 30.04 "Hg

Humidity: 78%

Dew Point: 68 °F

Location of CeutaLocation

Past Weather in Ceuta — Graph

°F

Ceuta Temperature Yesterday

Maximum temperature yesterday: 81 °F (at 3:50 PM)
Minimum temperature yesterday: 73 °F (at 6:50 AM)
Average temperature yesterday: 77 °F

High & Low Weather Summary for the Past Weeks

 TemperatureHumidityPressure
High90 °F (Aug 18, 4:50 PM)100% (Aug 22, 7:50 AM)30.18 "Hg (Aug 22, 7:50 AM)
Low72 °F (Aug 17, 5:50 AM)35% (Aug 18, 6:50 PM)29.83 "Hg (Aug 18, 6:50 PM)
Average77 °F78%30.02 "Hg
* Reported Aug 14 3:50 AM — Aug 29 3:50 AM, Ceuta, Weather by CustomWeather, © 2016

Note: Actual official high and low records may vary slightly from our data, if they occured in-between our weather recording intervals... More about our weather records

Advertising

Ceuta Weather History for the Previous 24 Hours

Scroll right to see more
 ConditionsComfort  
Time TempWeatherWind HumidityBarometerVisibility
3:50 AM
Mon, Aug 29
79 °FClear.9 mph65%30.04 "HgN/A
2:50 AM77 °FClear.10 mph74%30.07 "HgN/A
1:50 AM81 °FClear.10 mph58%30.07 "HgN/A
12:50 AM79 °FClear.9 mph70%30.09 "HgN/A
11:50 PM
Sun, Aug 28
79 °FClear.7 mph70%30.09 "HgN/A
10:50 PM79 °FClear.7 mph79%30.09 "HgN/A
9:50 PM77 °FSunny.5 mph83%30.07 "Hg10 mi
8:50 PM77 °FSunny.3 mph89%30.07 "Hg10 mi
7:50 PM77 °FSunny.8 mph83%30.07 "Hg10 mi
6:50 PM81 °FSunny.7 mph74%30.07 "Hg10 mi
5:50 PM81 °FSunny.9 mph74%30.07 "Hg10 mi
4:50 PM81 °FSunny.10 mph74%30.07 "Hg10 mi
3:50 PM81 °FSunny.10 mph74%30.09 "Hg10 mi
2:50 PM79 °FSunny.9 mph79%30.09 "Hg10 mi
1:50 PM79 °FSunny.7 mph79%30.12 "Hg10 mi
12:50 PM77 °FSunny.9 mph83%30.12 "Hg10 mi
11:50 AM77 °FHaze.7 mph83%30.12 "Hg6 mi
10:50 AM77 °FHaze.7 mph83%30.12 "Hg5 mi
9:50 AM75 °FPartly sunny.6 mph89%30.09 "Hg5 mi
8:50 AM73 °FPartly sunny.5 mph94%30.09 "Hg5 mi
7:50 AM73 °FPartly cloudy.3 mph94%30.09 "Hg4 mi
6:50 AM73 °FPassing clouds.6 mph94%30.07 "Hg4 mi
5:50 AM75 °FLow clouds.7 mph89%30.07 "Hg5 mi
Weather by CustomWeather, © 2016

See weather overviewHow to use our weather pages